Terug naar catalogus

TITAN 3C TRANSTAGE DEB

ActiefMEO
NORAD 43515·DEBRIS·🇺🇸 United States

Gelanceerd Feb 9, 1969 vanaf Cape Canaveral Space Force Station

Loading…

Volgende Passages (komende 24 uur)

TLE

VerouderendSource: Space-Track

Epoch: Aug 29, 2026, 18:51 UTC

1 43515U 69013T   26241.78575905 -.00000184  00000-0  00000-0 0  9992
2 43515   1.9912  60.0111 0329603 146.7752 216.1539  0.95443792 28927

Volg TITAN 3C TRANSTAGE DEB in realtime met AllMySat

Download on the App Store